| time (UTC) | temp F | wind direction | speed knots | gust knots | rain 1hr in | rain 24hr in | rain mn in | humidity % | barometer mb |
| 20260505071213 | 51 | 66 | 5.2 | 7.0 | 0.00 | 0.04 | 0.04 | 91 | 1010.4 |
| 20260505070710 | 51 | 12 | 5.2 | 6.1 | 0.00 | 0.04 | 0.04 | 91 | 1010.4 |
| 20260505070206 | 52 | 62 | 6.1 | 7.0 | 0.00 | 0.04 | 0.04 | 92 | 1009.4 |
| 20260505065702 | 52 | 343 | 4.3 | 6.1 | 0.00 | 0.04 | 0.04 | 91 | 1007.6 |
| 20260505065159 | 53 | 30 | 3.5 | 4.3 | 0.00 | 0.04 | 0.04 | 91 | 1008.3 |
| 20260505064656 | 53 | 79 | 1.7 | 1.7 | 0.00 | 0.04 | 0.04 | 91 | 1008.3 |
| 20260505064154 | 54 | 54 | 2.6 | 2.6 | 0.00 | 0.04 | 0.04 | 92 | 1007.9 |
| 20260505063652 | 54 | 74 | 2.6 | 2.6 | 0.00 | 0.04 | 0.04 | 93 | 1008.3 |
| 20260505063148 | 54 | 81 | 2.6 | 4.3 | 0.00 | 0.04 | 0.04 | 95 | 1007.9 |
| 20260505062644 | 54 | 134 | 0.0 | 0.0 | 0.00 | 0.04 | 0.04 | 94 | 1007.9 |
| 20260505062142 | 54 | 114 | 1.7 | 1.7 | 0.05 | 0.04 | 0.04 | 94 | 1007.6 |
| 20260505061639 | 54 | 122 | 0.0 | 0.0 | 0.05 | 0.04 | 0.04 | 95 | 1007.2 |
| 20260505061137 | 54 | 76 | 1.7 | 1.7 | 0.00 | 0.03 | 0.03 | 94 | 1007.6 |
| 20260505060634 | 54 | 103 | 0.9 | 0.9 | 0.00 | 0.03 | 0.03 | 93 | 1006.9 |
| 20260505060130 | 54 | 60 | 1.7 | 2.6 | 0.00 | 0.03 | 0.03 | 91 | 1006.9 |
| 20260505055626 | 55 | 23 | 4.3 | 6.1 | 0.00 | 0.03 | 0.03 | 90 | 1006.9 |
| 20260505055123 | 55 | 49 | 4.3 | 5.2 | 0.19 | 0.03 | 0.03 | 86 | 1006.5 |
| 20260505054620 | 61 | 82 | 3.5 | 4.3 | 0.12 | 0.02 | 0.02 | 75 | 1006.2 |
| 20260505054118 | 62 | 49 | 5.2 | 7.8 | 0.00 | 0.00 | 0.00 | 67 | 1005.9 |
| 20260505053615 | 65 | 91 | 2.6 | 4.3 | 0.00 | 0.00 | 0.00 | 61 | 1005.2 |
| 20260505053111 | 66 | 47 | 2.6 | 4.3 | 0.00 | 0.00 | 0.00 | 54 | 1005.5 |
| 20260505052608 | 68 | 36 | 4.3 | 6.1 | 0.00 | 0.00 | 0.00 | 53 | 1005.5 |
| 20260505052106 | 69 | 75 | 4.3 | 6.1 | 0.00 | 0.00 | 0.00 | 52 | 1005.5 |
| 20260505051603 | 69 | 45 | 3.5 | 4.3 | 0.00 | 0.00 | 0.00 | 54 | 1005.5 |
| 20260505051101 | 70 | 33 | 5.2 | 6.1 | 0.00 | 0.00 | 0.00 | 67 | 1005.2 |
| 20260505050558 | 69 | 68 | 2.6 | 4.3 | 0.00 | 0.00 | 0.00 | 76 | 1004.4 |
| 20260505041526 | 70 | 203 | 3.5 | 4.3 | 0.00 | 0.00 | 0.00 | 74 | 1004.4 |
| 20260505041024 | 70 | 174 | 3.5 | 6.1 | 0.00 | 0.00 | 0.00 | 73 | 1004.9 |
| 20260505040521 | 71 | 173 | 2.6 | 5.2 | 0.00 | 0.00 | 0.00 | 73 | 1004.4 |
| 20260505040018 | 71 | 151 | 2.6 | 5.2 | 0.00 | 0.00 | 0.00 | 73 | 1004.4 |
| 20260505035514 | 71 | 148 | 2.6 | 2.6 | 0.00 | 0.00 | 0.00 | 72 | 1004.9 |
| 20260505035011 | 71 | 189 | 2.6 | 5.2 | 0.00 | 0.00 | 0.00 | 72 | 1004.9 |
| 20260505034507 | 71 | 174 | 5.2 | 7.0 | 0.00 | 0.00 | 0.00 | 72 | 1004.4 |
| 20260505034004 | 71 | 134 | 3.5 | 4.3 | 0.00 | 0.00 | 0.00 | 72 | 1004.4 |
| 20260505033501 | 71 | 166 | 0.9 | 4.3 | 0.00 | 0.00 | 0.00 | 72 | 1004.4 |
| 20260505032959 | 71 | 197 | 2.6 | 4.3 | 0.00 | 0.00 | 0.00 | 71 | 1004.4 |
| 20260505032457 | 71 | 187 | 2.6 | 4.3 | 0.00 | 0.00 | 0.00 | 71 | 1004.9 |
| 20260505031953 | 72 | 150 | 2.6 | 2.6 | 0.00 | 0.00 | 0.00 | 70 | 1004.4 |
| 20260505031450 | 72 | 160 | 3.5 | 5.2 | 0.00 | 0.00 | 0.00 | 69 | 1004.4 |
| 20260505030947 | 72 | 183 | 5.2 | 7.0 | 0.00 | 0.00 | 0.00 | 68 | 1004.1 |
| 20260505030443 | 72 | 171 | 1.7 | 1.7 | 0.00 | 0.00 | 0.00 | 68 | 1004.1 |
| 20260505025938 | 73 | 184 | 2.6 | 4.3 | 0.00 | 0.00 | 0.00 | 67 | 1004.4 |
| 20260505025435 | 73 | 171 | 2.6 | 2.6 | 0.00 | 0.00 | 0.00 | 66 | 1004.4 |
| 20260505024934 | 73 | 153 | 2.6 | 2.6 | 0.00 | 0.00 | 0.00 | 66 | 1004.4 |
| 20260505024431 | 73 | 153 | 1.7 | 1.7 | 0.00 | 0.00 | 0.00 | 65 | 1004.1 |
| 20260505023928 | 74 | 170 | 2.6 | 4.3 | 0.00 | 0.00 | 0.00 | 65 | 1004.1 |
| 20260505023425 | 74 | 200 | 3.5 | 4.3 | 0.00 | 0.00 | 0.00 | 64 | 1004.1 |
| 20260505022923 | 74 | 202 | 3.5 | 4.3 | 0.00 | 0.00 | 0.00 | 63 | 1003.7 |
| 20260505022421 | 74 | 201 | 6.1 | 7.8 | 0.00 | 0.00 | 0.00 | 63 | 1004.1 |
| 20260505021917 | 74 | 184 | 3.5 | 4.3 | 0.00 | 0.00 | 0.00 | 63 | 1003.7 |
| 20260505021413 | 74 | 162 | 1.7 | 1.7 | 0.00 | 0.00 | 0.00 | 63 | 1003.7 |
| 20260505020909 | 74 | 161 | 1.7 | 2.6 | 0.00 | 0.00 | 0.00 | 63 | 1003.7 |
| 20260505020404 | 74 | 173 | 0.9 | 1.7 | 0.00 | 0.00 | 0.00 | 63 | 1003.7 |
| 20260505015902 | 75 | 184 | 1.7 | 2.6 | 0.00 | 0.00 | 0.00 | 62 | 1003.7 |
| 20260505015359 | 75 | 160 | 0.9 | 0.9 | 0.00 | 0.00 | 0.00 | 61 | 1003.7 |
| 20260505014856 | 75 | 164 | 0.9 | 0.9 | 0.00 | 0.00 | 0.00 | 61 | 1003.4 |
| 20260505014353 | 75 | 183 | 1.7 | 1.7 | 0.00 | 0.00 | 0.00 | 60 | 1003.7 |
| 20260505013850 | 75 | 167 | 0.0 | 0.0 | 0.00 | 0.00 | 0.00 | 59 | 1003.1 |
| 20260505013347 | 76 | 157 | 0.9 | 0.9 | 0.00 | 0.00 | 0.00 | 58 | 1003.1 |
| 20260505012845 | 76 | 158 | 0.0 | 0.0 | 0.00 | 0.00 | 0.00 | 57 | 1003.4 |
| 20260505012343 | 76 | 168 | 0.0 | 0.0 | 0.00 | 0.00 | 0.00 | 56 | 1003.1 |
| 20260505011839 | 77 | 161 | 0.9 | 1.7 | 0.00 | 0.00 | 0.00 | 55 | 1002.7 |
| 20260505011336 | 77 | 207 | 2.6 | 4.3 | 0.00 | 0.00 | 0.00 | 54 | 1003.1 |
| 20260505010832 | 77 | 160 | 0.9 | 1.7 | 0.00 | 0.00 | 0.00 | 54 | 1002.7 |
| 20260505010327 | 77 | 160 | 2.6 | 4.3 | 0.00 | 0.00 | 0.00 | 53 | 1002.7 |
| 20260505005824 | 78 | 151 | 0.0 | 0.9 | 0.00 | 0.00 | 0.00 | 53 | 1002.7 |
| 20260505005321 | 78 | 154 | 0.0 | 0.0 | 0.00 | 0.00 | 0.00 | 52 | 1002.7 |
| 20260505004819 | 78 | 155 | 0.0 | 0.0 | 0.00 | 0.00 | 0.00 | 51 | 1002.7 |
| 20260505004315 | 79 | 149 | 0.9 | 0.9 | 0.00 | 0.00 | 0.00 | 50 | 1002.7 |
| 20260505003812 | 79 | 163 | 0.9 | 0.9 | 0.00 | 0.00 | 0.00 | 49 | 1002.4 |
| 20260505003309 | 79 | 151 | 0.0 | 0.0 | 0.00 | 0.00 | 0.00 | 50 | 1002.4 |
| 20260505002805 | 79 | 183 | 0.9 | 1.7 | 0.00 | 0.00 | 0.00 | 50 | 1002.4 |
| 20260505002304 | 80 | 177 | 1.7 | 1.7 | 0.00 | 0.00 | 0.00 | 49 | 1002.4 |
| 20260505001801 | 80 | 167 | 0.9 | 0.9 | 0.00 | 0.00 | 0.00 | 48 | 1002.4 |
| 20260505001257 | 80 | 166 | 1.7 | 1.7 | 0.00 | 0.00 | 0.00 | 50 | 1002.4 |
| 20260505000755 | 80 | 176 | 0.9 | 1.7 | 0.00 | 0.00 | 0.00 | 49 | 1002.4 |
| 20260505000252 | 80 | 155 | 0.9 | 0.9 | 0.00 | 0.00 | 0.00 | 48 | 1002.4 |
| 20260504235749 | 80 | 193 | 0.0 | 0.0 | 0.00 | 0.00 | 0.00 | 48 | 1002.4 |
| 20260504235245 | 80 | 149 | 0.0 | 0.0 | 0.00 | 0.00 | 0.00 | 48 | 1002.4 |
| 20260504234742 | 81 | 156 | 1.7 | 1.7 | 0.00 | 0.00 | 0.00 | 48 | 1002.4 |
| 20260504234240 | 80 | 178 | 0.9 | 0.9 | 0.00 | 0.00 | 0.00 | 47 | 1002.4 |
| 20260504233736 | 80 | 164 | 0.9 | 0.9 | 0.00 | 0.00 | 0.00 | 48 | 1002.4 |
| 20260504233231 | 80 | 179 | 2.6 | 2.6 | 0.00 | 0.00 | 0.00 | 46 | 1002.4 |
| 20260504232729 | 80 | 179 | 2.6 | 4.3 | 0.00 | 0.00 | 0.00 | 46 | 1002.4 |
| 20260504232226 | 80 | 205 | 2.6 | 4.3 | 0.00 | 0.00 | 0.00 | 47 | 1002.4 |
| 20260504231722 | 81 | 211 | 3.5 | 4.3 | 0.00 | 0.00 | 0.00 | 46 | 1002.4 |
| 20260504231219 | 81 | 176 | 0.0 | 0.9 | 0.00 | 0.00 | 0.00 | 46 | 1002.7 |
| 20260504230715 | 81 | 210 | 4.3 | 5.2 | 0.00 | 0.00 | 0.00 | 46 | 1002.4 |
| 20260504230214 | 81 | 253 | 4.3 | 5.2 | 0.00 | 0.00 | 0.00 | 46 | 1002.4 |
| 20260504225712 | 82 | 229 | 3.5 | 5.2 | 0.00 | 0.00 | 0.00 | 45 | 1002.4 |
| 20260504225208 | 82 | 256 | 4.3 | 7.8 | 0.00 | 0.00 | 0.00 | 44 | 1002.4 |
| 20260504224705 | 82 | 189 | 2.6 | 2.6 | 0.00 | 0.00 | 0.00 | 44 | 1002.4 |
| 20260504224203 | 82 | 173 | 1.7 | 1.7 | 0.00 | 0.00 | 0.00 | 45 | 1002.7 |
| 20260504223659 | 82 | 262 | 6.1 | 7.0 | 0.00 | 0.00 | 0.00 | 44 | 1002.7 |
| 20260504223154 | 82 | 192 | 4.3 | 5.2 | 0.00 | 0.00 | 0.00 | 45 | 1002.7 |
| 20260504222652 | 83 | 251 | 5.2 | 6.1 | 0.00 | 0.00 | 0.00 | 44 | 1002.7 |
| 20260504222148 | 82 | 272 | 4.3 | 7.0 | 0.00 | 0.00 | 0.00 | 43 | 1002.4 |
| 20260504221646 | 82 | 192 | 5.2 | 7.0 | 0.00 | 0.00 | 0.00 | 43 | 1002.7 |
| 20260504221143 | 83 | 230 | 4.3 | 6.1 | 0.00 | 0.00 | 0.00 | 44 | 1002.7 |
| 20260504220639 | 82 | 192 | 2.6 | 4.3 | 0.00 | 0.00 | 0.00 | 45 | 1002.7 |
| 20260504220137 | 83 | 236 | 6.1 | 7.8 | 0.00 | 0.00 | 0.00 | 43 | 1002.7 |
| 20260504215633 | 82 | 192 | 2.6 | 4.3 | 0.00 | 0.00 | 0.00 | 44 | 1002.7 |
| 20260504215131 | 81 | 262 | 6.1 | 7.0 | 0.00 | 0.00 | 0.00 | 43 | 1002.7 |
| 20260504214626 | 81 | 276 | 5.2 | 7.0 | 0.00 | 0.00 | 0.00 | 43 | 1002.7 |
| 20260504214123 | 81 | 228 | 2.6 | 5.2 | 0.00 | 0.00 | 0.00 | 45 | 1003.1 |
| 20260504213619 | 81 | 260 | 4.3 | 6.1 | 0.00 | 0.00 | 0.00 | 45 | 1003.1 |
| 20260504213116 | 81 | 203 | 4.3 | 6.1 | 0.00 | 0.00 | 0.00 | 44 | 1003.1 |
| 20260504212612 | 81 | 260 | 7.0 | 7.8 | 0.00 | 0.00 | 0.00 | 46 | 1003.1 |
| 20260504212110 | 80 | 253 | 5.2 | 6.1 | 0.00 | 0.00 | 0.00 | 46 | 1003.1 |
| 20260504211607 | 81 | 271 | 4.3 | 7.0 | 0.00 | 0.00 | 0.00 | 46 | 1003.1 |
| 20260504211103 | 81 | 255 | 7.0 | 7.8 | 0.00 | 0.00 | 0.00 | 45 | 1003.1 |
| 20260504210601 | 81 | 198 | 4.3 | 6.1 | 0.00 | 0.00 | 0.00 | 45 | 1003.1 |
| 20260504210057 | 80 | 200 | 4.3 | 6.1 | 0.00 | 0.00 | 0.00 | 45 | 1003.1 |
| 20260504205555 | 80 | 241 | 6.1 | 7.0 | 0.00 | 0.00 | 0.00 | 44 | 1003.1 |
| 20260504205053 | 80 | 254 | 7.0 | 7.8 | 0.00 | 0.00 | 0.00 | 45 | 1003.4 |
| 20260504204550 | 80 | 250 | 4.3 | 5.2 | 0.00 | 0.00 | 0.00 | 48 | 1003.4 |
| 20260504204049 | 80 | 189 | 5.2 | 7.8 | 0.00 | 0.00 | 0.00 | 47 | 1003.1 |
| 20260504203547 | 80 | 196 | 3.5 | 4.3 | 0.00 | 0.00 | 0.00 | 46 | 1003.7 |
| 20260504203044 | 80 | 143 | 7.0 | 8.7 | 0.00 | 0.00 | 0.00 | 45 | 1003.4 |
| 20260504202539 | 80 | 144 | 6.1 | 7.0 | 0.00 | 0.00 | 0.00 | 46 | 1003.7 |
| 20260504202037 | 80 | 193 | 7.8 | 11.3 | 0.00 | 0.00 | 0.00 | 46 | 1003.7 |
| 20260504201533 | 81 | 221 | 7.8 | 11.3 | 0.00 | 0.00 | 0.00 | 46 | 1003.4 |
| 20260504201032 | 80 | 213 | 3.5 | 5.2 | 0.00 | 0.00 | 0.00 | 48 | 1003.4 |
| 20260504200527 | 81 | 165 | 5.2 | 6.1 | 0.00 | 0.00 | 0.00 | 47 | 1003.7 |
| 20260504200025 | 81 | 256 | 6.1 | 7.8 | 0.00 | 0.00 | 0.00 | 47 | 1003.1 |
| 20260504195520 | 82 | 206 | 6.1 | 7.0 | 0.00 | 0.00 | 0.00 | 47 | 1003.4 |
| 20260504195017 | 81 | 204 | 12.2 | 13.9 | 0.00 | 0.00 | 0.00 | 46 | 1003.7 |
| 20260504194514 | 81 | 188 | 6.1 | 7.8 | 0.00 | 0.00 | 0.00 | 46 | 1003.4 |
| 20260504194009 | 81 | 212 | 6.1 | 7.8 | 0.00 | 0.00 | 0.00 | 48 | 1003.4 |
| 20260504193506 | 80 | 250 | 7.0 | 8.7 | 0.00 | 0.00 | 0.00 | 47 | 1003.4 |
| 20260504193005 | 80 | 178 | 5.2 | 8.7 | 0.00 | 0.00 | 0.00 | 48 | 1003.4 |
| 20260504192503 | 80 | 212 | 6.1 | 8.7 | 0.00 | 0.00 | 0.00 | 49 | 1003.4 |
| 20260504192001 | 80 | 222 | 7.8 | 9.6 | 0.00 | 0.00 | 0.00 | 48 | 1003.4 |
| 20260504191458 | 80 | 229 | 9.6 | 13.9 | 0.00 | 0.00 | 0.00 | 48 | 1003.7 |
| 20260504190954 | 80 | 203 | 4.3 | 6.1 | 0.00 | 0.00 | 0.00 | 48 | 1003.4 |
| 20260504190449 | 80 | 198 | 2.6 | 2.6 | 0.00 | 0.00 | 0.00 | 49 | 1003.4 |
| 20260504185946 | 80 | 190 | 4.3 | 5.2 | 0.00 | 0.00 | 0.00 | 49 | 1003.4 |
| 20260504185444 | 80 | 169 | 4.3 | 6.1 | 0.00 | 0.00 | 0.00 | 49 | 1003.7 |
| 20260504184939 | 80 | 218 | 3.5 | 5.2 | 0.00 | 0.00 | 0.00 | 49 | 1003.7 |
| 20260504184436 | 80 | 259 | 4.3 | 7.0 | 0.00 | 0.00 | 0.00 | 47 | 1003.7 |
| 20260504183931 | 78 | 205 | 1.7 | 1.7 | 0.00 | 0.00 | 0.00 | 48 | 1003.7 |
| 20260504183429 | 79 | 205 | 5.2 | 6.1 | 0.00 | 0.00 | 0.00 | 47 | 1003.7 |
| 20260504182927 | 79 | 273 | 5.2 | 7.0 | 0.00 | 0.00 | 0.00 | 47 | 1004.1 |
| 20260504182423 | 78 | 236 | 5.2 | 6.1 | 0.00 | 0.00 | 0.00 | 46 | 1003.7 |
| 20260504181921 | 79 | 218 | 3.5 | 5.2 | 0.00 | 0.00 | 0.00 | 49 | 1004.1 |
| 20260504181418 | 78 | 186 | 3.5 | 5.2 | 0.00 | 0.00 | 0.00 | 50 | 1004.1 |
| 20260504180916 | 78 | 216 | 6.1 | 6.1 | 0.00 | 0.00 | 0.00 | 48 | 1004.1 |
| 20260504180415 | 78 | 216 | 4.3 | 6.1 | 0.00 | 0.00 | 0.00 | 49 | 1004.4 |
| 20260504175912 | 77 | 163 | 4.3 | 7.0 | 0.00 | 0.00 | 0.00 | 50 | 1004.1 |
| 20260504175409 | 77 | 242 | 7.8 | 9.6 | 0.00 | 0.00 | 0.00 | 49 | 1004.1 |
| 20260504174907 | 77 | 226 | 7.0 | 9.6 | 0.00 | 0.00 | 0.00 | 48 | 1004.4 |
| 20260504174404 | 76 | 228 | 7.0 | 7.8 | 0.00 | 0.00 | 0.00 | 48 | 1004.1 |
| 20260504173902 | 76 | 196 | 2.6 | 4.3 | 0.00 | 0.00 | 0.00 | 49 | 1004.4 |
| 20260504173358 | 76 | 237 | 6.1 | 7.0 | 0.00 | 0.00 | 0.00 | 48 | 1004.1 |
| 20260504172855 | 77 | 152 | 4.3 | 6.1 | 0.00 | 0.00 | 0.00 | 49 | 1004.4 |
| 20260504172352 | 76 | 264 | 7.0 | 7.8 | 0.00 | 0.00 | 0.00 | 49 | 1004.1 |
| 20260504171847 | 75 | 180 | 2.6 | 4.3 | 0.00 | 0.00 | 0.00 | 50 | 1004.1 |
| 20260504171345 | 75 | 210 | 5.2 | 7.0 | 0.00 | 0.00 | 0.00 | 51 | 1004.9 |
| 20260504170842 | 76 | 289 | 5.2 | 7.0 | 0.00 | 0.00 | 0.00 | 51 | 1004.4 |
| 20260504170338 | 76 | 230 | 6.1 | 6.1 | 0.00 | 0.00 | 0.00 | 49 | 1004.9 |
| 20260504160257 | 72 | 218 | 4.3 | 6.1 | 0.00 | 0.00 | 0.00 | 53 | 1004.4 |
| 20260504150722 | 70 | 218 | 9.6 | 13.0 | 0.00 | 0.00 | 0.00 | 54 | 1004.9 |
| 20260504150219 | 70 | 225 | 7.0 | 9.6 | 0.00 | 0.00 | 0.00 | 54 | 1005.2 |
| 20260504141148 | 68 | 188 | 3.5 | 5.2 | 0.00 | 0.00 | 0.00 | 58 | 1004.9 |
| 20260504140645 | 68 | 248 | 4.3 | 6.1 | 0.00 | 0.00 | 0.00 | 58 | 1005.2 |
| 20260504140140 | 67 | 205 | 5.2 | 7.0 | 0.00 | 0.00 | 0.00 | 58 | 1004.9 |
| 20260504130609 | 65 | 213 | 2.6 | 4.3 | 0.00 | 0.00 | 0.00 | 59 | 1004.4 |
| 20260504130106 | 65 | 140 | 5.2 | 7.0 | 0.00 | 0.00 | 0.00 | 59 | 1004.4 |
| 20260504110451 | 64 | 208 | 2.6 | 2.6 | 0.00 | 0.00 | 0.00 | 58 | 1005.2 |
| 20260504100413 | 66 | 208 | 9.6 | 12.2 | 0.00 | 0.00 | 0.00 | 53 | 1004.9 |
| 20260504081806 | 66 | 179 | 5.2 | 6.1 | 0.00 | 0.00 | 0.00 | 53 | 1005.9 |
| 20260504081303 | 66 | 198 | 5.2 | 6.1 | 0.00 | 0.00 | 0.00 | 53 | 1005.9 |
| 20260504080759 | 66 | 213 | 7.8 | 13.0 | 0.00 | 0.00 | 0.00 | 53 | 1005.9 |
| 20260504080255 | 66 | 195 | 6.1 | 7.8 | 0.00 | 0.00 | 0.00 | 53 | 1005.9 |